Volver al catálogo

COSMOS 970 DEB

ActivoLEO
NORAD 10573·DEBRIS·🇷🇺 Russia

Lanzado Dec 21, 1977 desde Baikonur Cosmodrome

Loading…

Próximos Pases (próximas 24 horas)

TLE

ActualizadoSource: Space-Track

Época: Sep 13, 2026, 21:28 UTC

1 10573U 77121Q   26256.89448399  .00000016  00000-0  13138-3 0  9995
2 10573  66.3620  71.5474 0086668  15.8610  94.7921 13.52031027401960

Sigue COSMOS 970 DEB en tiempo real con AllMySat

Download on the App Store